Location: Les Thiberg�res
(47.8554°N, 1.0978°W)
Time: 01:00:28
(UTC+00:00)

Cosmos 482 Debris - Pass Details

Date: 17 February 2020
Orbit: 200 x 2280 km, 52.1° (Epoch: 04 April)

Event Time Altitude Azimuth Distance (km) Brightness Sun altitude
Exits shadow 06:36:43 - 279° (W) 933 4.8 -6.0°
Reaches altitude 10° 06:36:53 10° 277° (W) 865 4.7 -5.9°
Maximum altitude 06:38:29 28° 212° (SSW) 423 3.6 -5.7°
Drops below altitude 10° 06:40:12 10° 147° (SSE) 921 6.2 -5.4°
Sets 06:42:15 0° 135° (SE) 1,834 8.1 -5.0°
